DECAYED

FENGYUN 1C DEB, 31263 (Decayed)

Orbit data source: Space-Track

FENGYUN 1C DEB, 31263 was space debris in SSO originally from a launch on Mon, 10 May 1999 UTC launched from the Taiyaun Space Center, China (TSC). Fengyun 1C debris stems from the Chinese weather satellite Fengyun-1C, which was intentionally destroyed by a Chinese anti-satellite missile in 2007. This event dramatically increased the amount of space debris, with thousands of trackable fragments posing hazards to satellites and human spaceflight. The Fengyun 1C debris cloud has become a focal point in discussions about space sustainability and the need for international regulations to prevent the creation of new debris.

Not visible in the next 10 days
Identifier
31263, 1999-025BMV
Orbit
Decayed
Country
Flag of CNCN / PRC
Related business
Manufacturer
Unknown
Mission
Decayed spacecraft
Bus & Motor
Unknown
Mass
Unknown
Launch date (UTC)
1999-05-10 (27 years ago)
Launch vehicle
Unknown
Launch site
Taiyaun Space Center, China (TSC)
Object type
Payload
Rocket body
Debris
Shape & HBR
Unknown shape, 0.1 m
Radar Cross Section
Medium (>0.1 m² and <1 m²)

Expand to show TLE details & history
Last TLE update: 9 months ago

TLE from 9 months ago
0 FENGYUN 1C DEB
1 31263U 99025BMV 25351.74268971  .02239772  00000-0  17262-1 0  9991
2 31263  98.9827 277.2526 0024787 119.3199 241.0538 15.68261869972443
Epoch: 2025-12-17T17:49Z
TLE epoch observation values (Epoch: 2025-12-17T17:49:28.390Z)
Latitude
-0.00006°
Longitude
-76.72386°
Altitude
375.1 km
Speed
7.68 km/s
True Right ascension
18h 29m 00s
True Declination
0° 00' 00"
Sunlit
Object was in daylight at epoch
Visualization orbit readout
Latitude
Unknown
Longitude
Unknown
Altitude
Unknown
Speed
Unknown
Apparent Right ascension
Unknown
Apparent Declination
Unknown
Sunlit
N/A
Visualization observer readout
Local Sidereal Time
07:23:50
Azimuth
Unknown
Elevation
Unknown
Doppler factor
Unknown
Orbital elements
Apogee altitude
377.556 km
Perigee altitude
344.148 km
Semi-major axis
6,738.989 km
Eccentricity
0.00248
Inclination
98.9827°
RAAN
277.2526°
Arg. of periapsis
119.3199°
True anomaly
240.80562°
Mean anomaly
241.0538°
Eccentric anomaly
240.92967°
Mean motion
3.9233 °/min
Orbital period
91.76 mins
BSTAR
0.017262
Loading maneuver chart data...
Computing Atmospheric mass density...

Documentation

Showing up to 5 results
|